Temperature
16 16 16 16 16 15 15 15 15 15 15 15 15 15 15 15 15 15 15 15 15 15 15 15 15 15 15 15 15 15 15 15 15 15 15 15 15 15 15 15 15 15 15
16 15 15 15 15 15 15 15 15 15 15 15 15 15 15 15 15 15 15 15 15 15 15 15 15 15 15 15 15 15 15 15 15 15 15 15 15 15 15 15 15 15 15
15 15 15 15 15 15 15 15 15 15 15 15 15 15 15 15 15 15 15 15 15 15 15 15 15 14 14 14 14 15 14 14 14 14 14 14 14 14 14 15 15 15 15
15 15 15 15 15 15 15 15 15 15 15 15 15 14 14 14 14 14 14 14 14 14 14 14 14 14 14 14 14 14 14 14 14 14 14 14 14 14 14 14 14 14 14
15 15 15 15 15 15 15 15 15 15 15 14 14 14 14 14 14 14 14 14 14 14 14 14 14 14 14 14 14 14 14 14 14 14 14 14 14 14 14 14 14 14 14
15 15 15 14 14 14 14 14 14 14 14 14 14 14 14 14 14 14 14 14 14 14 14 14 14 14 14 14 14 14 14 14 14 14 14 13 13 14 14 14 14 14 14
15 15 14 14 14 14 14 14 14 14 14 14 14 14 14 13 13 13 13 13 13 13 13 13 13 13 13 13 13 13 13 13 13 13 13 13 13 13 13 13 13 13 13
15 14 14 14 14 14 14 14 14 14 14 14 14 13 13 13 13 13 13 13 13 13 13 13 13 13 13 13 13 13 13 13 13 13 13 13 13 13 13 13 13 13 13
14 14 14 14 14 14 14 14 14 14 14 13 14 13 13 13 13 13 13 13 13 13 13 13 13 13 13 13 13 13 13 13 13 13 13 13 13 13 13 13 13 13 13
14 14 14 14 14 14 14 13 13 13 14 13 13 13 13 13 13 12 12 12 12 12 12 12 12 12 12 12 12 12 12 12 12 12 13 12 12 12 12 12 13 13 13
14 14 14 14 14 14 13 13 13 13 13 13 13 13 13 13 13 12 12 12 12 12 12 12 12 12 12 12 12 12 12 12 12 12 12 12 12 12 12 12 12 12 12
14 14 14 14 14 13 13 13 13 13 13 13 13 13 13 13 13 13 12 12 12 12 12 12 12 12 12 12 12 12 12 12 12 12 12 12 12 12 12 12 12 12 12
14 14 14 14 14 13 13 13 13 13 13 13 13 13 13 13 13 13 12 12 12 12 12 12 12 12 12 12 12 12 12 12 12 12 12 12 12 12 12 12 12 12 12
14 14 14 14 13 13 13 13 13 13 13 13 13 13 13 13 13 13 12 12 12 11 11 11 11 11 11 11 12 12 12 12 12 12 12 12 12 12 12 12 12 12 12
14 14 14 13 13 13 13 13 13 13 13 13 13 13 13 13 12 12 12 12 12 11 11 11 11 11 11 11 11 11 11 11 11 11 11 11 11 11 11 11 11 11 11
14 13 13 13 13 13 13 13 13 13 13 13 13 12 12 12 12 12 12 12 12 12 11 11 11 11 11 11 11 11 11 11 11 11 11 11 11 11 11 11 11 11 11
13 13 13 13 13 13 13 13 13 13 12 12 12 12 12 12 12 12 12 12 12 12 11 11 11 11 11 11 11 11 11 11 11 11 11 11 11 11 11 11 11 11 11
13 13 13 13 13 13 13 13 12 12 12 12 12 12 12 12 12 12 12 12 12 11 11 11 11 11 11 11 11 11 11 11 10 10 10 10 10 10 10 10 10 10 10
13 13 13 13 13 13 12 12 12 12 12 12 12 12 12 12 12 12 12 12 11 11 11 11 11 11 11 11 10 10 10 10 10 10 10 10 10 10 10 10 10 10 10
13 13 13 13 13 12 12 12 12 12 12 12 12 12 12 11 12 11 11 11 11 11 11 11 11 10 10 10 10 10 10 10 10 10 10 10 10 10 10 10 10 10 9
13 13 12 12 12 12 12 12 12 12 12 12 12 11 11 11 11 11 11 11 11 11 11 11 10 10 10 10 10 10 10 10 10 9 9 9 9 9 9 9 9 9 9
12 12 12 12 12 12 11 11 11 11 11 11 11 11 11 11 11 11 11 11 11 10 10 10 10 10 10 10 10 10 9 9 9 9 9 9 9 9 9 9 9 9 9
12 12 12 12 11 11 11 11 11 11 11 11 11 11 11 11 11 10 10 10 10 10 10 10 10 10 10 10 9 9 9 9 9 9 9 9 9 9 8 8 8 8 8
12 12 11 11 11 11 11 11 10 10 10 10 10 10 10 10 10 10 10 10 10 10 10 9 9 9 9 9 9 9 9 9 9 9 8 8 8 8 8 8 8 8 8
11 11 11 11 11 11 10 10 10 10 10 10 10 10 10 10 10 10 9 9 9 9 9 9 9 9 9 9 9 9 9 9 8 8 8 8 8 8 8 8 8 8 8
11 11 10 10 10 10 10 10 10 10 10 10 9 9 9 9 9 9 9 9 9 9 9 9 9 9 9 9 9 9 8 8 8 8 8 8 8 7 7 8 8 8 7
Wind_Speed
4 4 4 4 5 5 5 5 6 6 6 7 7 7 7 7 7 6 7 9 10 10 10 10 10 10 11 10 9 9 9 9 9 9 8 8 8 8 8 9 9 9 9
5 4 4 4 5 5 5 5 6 5 5 5 6 6 6 6 6 6 6 7 9 9 10 10 9 9 9 10 10 9 9 9 9 8 8 8 8 8 8 8 8 8 9
6 5 4 4 4 6 6 6 6 5 5 5 5 5 5 5 5 6 6 5 5 7 8 9 9 9 8 9 9 9 9 9 9 8 8 8 8 7 7 8 8 8 7
8 6 4 4 5 6 5 4 4 5 5 4 4 4 4 4 5 5 5 6 5 6 7 8 8 8 8 8 9 9 9 8 8 8 8 8 7 7 7 7 7 7 7
8 7 5 4 5 5 4 4 4 4 4 4 4 4 4 4 4 5 5 5 5 6 5 7 9 9 9 9 9 9 8 7 8 8 7 7 7 7 8 7 7 6 6
7 7 5 5 6 4 4 4 4 4 3 3 5 5 4 4 4 4 4 4 5 5 5 6 7 8 9 9 9 9 9 8 7 7 7 7 7 7 7 7 6 5 5
6 6 4 4 4 4 3 3 3 4 3 3 4 4 4 5 4 4 4 4 5 5 5 5 6 5 5 7 8 8 8 7 8 7 6 7 7 7 6 7 7 6 6
5 6 5 3 3 3 4 3 3 3 2 2 3 3 3 4 4 4 3 3 3 4 4 4 5 5 5 5 6 7 7 6 6 6 5 6 6 5 6 6 6 6 6
5 5 4 3 3 3 3 2 3 3 2 1 2 3 3 1 1 3 3 3 3 3 3 4 5 4 4 4 4 4 5 5 4 4 5 4 5 5 5 5 5 5 5
4 4 4 3 3 2 2 2 2 2 3 1 1 1 2 3 2 1 3 3 3 3 3 3 4 4 4 4 4 4 4 4 4 5 4 4 4 5 5 4 4 4 4
2 3 3 3 3 2 2 2 2 2 2 2 1 1 2 2 2 3 0 2 3 2 2 2 2 3 3 3 4 4 4 4 5 5 5 5 5 5 4 5 4 4 4
0 1 2 2 2 2 2 2 2 3 2 2 1 2 2 2 1 2 2 1 1 2 2 2 2 2 3 3 4 5 5 5 5 6 6 6 5 4 4 4 3 3 3
1 2 1 1 1 2 2 2 2 2 2 2 2 1 1 2 2 2 3 1 0 1 1 2 1 1 2 3 3 4 4 4 4 4 4 4 4 3 3 3 3 3 2
2 2 2 2 2 2 2 3 2 2 1 2 2 2 1 1 2 3 3 3 1 1 1 2 1 1 1 2 2 3 3 4 4 4 4 4 4 3 3 3 3 3 3
2 2 2 2 2 2 2 3 2 2 2 1 2 2 1 1 1 2 3 4 4 2 1 2 1 1 0 2 2 3 2 3 3 3 3 4 4 4 3 3 3 3 3
2 2 2 2 2 2 2 2 2 1 2 1 1 2 1 1 1 1 2 2 3 4 2 2 2 1 1 1 1 2 2 2 2 2 2 2 3 3 4 3 4 4 4
3 3 2 2 3 2 2 2 2 2 2 1 1 1 1 1 1 1 2 2 2 3 3 2 1 0 1 1 1 1 1 1 1 1 1 1 2 3 3 3 4 4 4
3 3 3 3 3 3 3 3 2 1 2 2 1 1 1 1 1 1 2 2 2 3 4 3 1 1 1 2 1 1 1 1 0 0 0 1 1 2 2 2 2 3 4
3 3 3 3 3 3 3 2 2 2 2 2 2 2 2 2 1 1 2 2 2 2 3 3 2 1 1 1 1 0 1 1 1 1 1 1 2 2 2 2 2 2 3
4 3 3 4 4 4 3 3 2 2 1 1 2 2 3 3 4 3 2 2 2 2 3 3 2 1 1 0 1 1 0 1 1 1 1 1 1 1 1 2 2 2 2
4 4 3 3 2 3 3 3 3 3 2 1 1 2 2 3 4 3 3 3 3 2 2 3 2 1 1 1 2 2 2 0 1 0 0 1 1 1 1 1 0 1 1
3 3 4 4 3 3 3 4 4 3 2 2 2 1 1 1 3 4 4 4 5 4 4 3 3 3 3 3 2 2 2 1 2 1 1 1 0 1 1 1 1 1 1
4 3 3 4 4 4 4 4 4 3 3 3 2 2 2 1 1 1 2 3 4 5 5 5 4 5 4 5 4 3 3 3 3 2 2 1 1 1 2 2 3 3 2
4 4 4 4 3 3 3 4 4 3 2 3 3 3 3 2 1 2 2 2 2 2 4 4 5 5 5 5 5 5 5 3 1 1 2 2 2 2 2 2 3 3 3
3 3 3 3 3 3 4 4 4 2 2 2 3 3 3 3 3 3 3 2 1 1 1 3 3 3 4 5 5 3 3 2 1 2 2 3 2 1 1 2 3 4 4
3 3 2 3 3 3 4 5 5 3 2 2 2 2 4 4 4 4 3 3 3 2 1 0 0 0 1 3 5 5 5 3 2 3 3 3 2 2 1 2 1 2 3
Wind_Direction
80 73 68 65 60 66 73 72 69 67 66 72 83 88 84 81 75 73 80 88 88 88 91 100 103 100 98 98 106 106 106 100 95 93 90 90 90 86 84 82 83 84 80
91 82 75 68 64 69 77 80 75 71 69 72 69 75 82 85 78 72 72 80 85 84 86 92 101 99 103 100 95 93 96 103 97 94 93 91 91 91 90 89 88 85 83
99 93 81 69 65 70 75 76 68 69 69 66 63 65 76 78 77 71 65 61 70 81 88 92 95 96 101 103 101 99 96 95 95 91 90 91 90 95 94 90 89 88 88
98 95 84 72 71 74 74 74 65 68 63 60 58 54 60 67 64 67 66 63 63 65 74 86 93 98 96 98 98 98 95 92 90 89 85 83 85 90 93 92 95 92 89
98 98 86 77 78 71 64 76 64 74 73 63 65 55 48 53 54 63 59 58 63 65 64 70 79 88 90 89 90 90 90 92 89 88 82 82 83 85 88 91 94 93 90
101 101 92 85 83 73 61 64 70 60 70 70 73 56 35 37 48 51 52 57 61 63 67 68 66 70 77 80 81 80 78 80 86 86 82 80 81 82 84 83 87 94 92
105 106 96 89 86 84 83 81 79 68 54 65 70 41 21 28 37 39 44 52 49 53 66 72 71 68 63 65 70 73 74 76 76 76 76 75 75 74 74 75 81 84 86
109 118 110 109 105 98 84 77 83 83 54 61 98 86 34 11 10 20 33 55 46 51 57 66 73 73 68 65 66 65 67 70 78 79 77 73 75 77 77 77 81 83 81
103 116 117 117 123 117 117 107 104 108 103 25 81 120 122 178 333 355 12 30 35 45 48 65 73 72 69 69 73 71 63 55 59 73 79 77 85 89 88 81 80 82 80
104 115 120 121 129 124 130 136 123 123 123 102 15 55 135 152 139 24 350 2 17 32 34 57 64 64 64 66 81 86 68 57 54 60 66 79 91 98 95 83 78 78 78
105 117 122 116 129 135 146 134 118 119 127 143 145 104 76 73 100 132 180 342 1 356 12 45 65 66 65 65 71 79 83 75 64 65 65 72 79 86 88 83 75 75 73
93 137 122 117 142 148 152 147 137 134 130 124 127 124 134 137 155 139 155 188 338 326 358 20 36 54 82 77 78 71 81 81 75 73 68 65 66 71 76 76 69 64 65
210 227 166 163 170 178 169 149 134 139 143 143 157 157 156 169 159 144 139 155 151 325 358 357 344 51 94 94 88 77 79 86 83 81 72 62 58 59 64 65 60 52 43
203 208 180 177 177 168 160 156 141 154 142 163 170 165 153 177 152 148 153 146 117 1 356 309 330 9 93 121 112 98 81 77 81 78 72 64 55 55 56 58 59 47 32
190 181 170 163 157 150 150 151 148 168 160 175 183 174 163 182 157 152 148 152 151 167 253 272 284 311 59 132 136 123 114 97 87 79 75 63 51 51 58 60 51 41 31
178 168 165 153 153 141 130 128 150 175 162 195 172 143 154 191 167 153 157 156 150 160 198 236 238 246 167 123 158 140 141 119 91 91 87 69 59 60 61 59 49 39 37
173 176 169 156 157 146 130 127 157 155 155 171 142 150 208 186 172 175 157 149 151 147 173 250 248 251 128 123 108 128 103 93 72 86 92 77 73 68 56 53 51 44 38
172 171 152 147 152 144 136 142 154 151 170 182 197 174 224 204 194 201 174 178 183 177 168 192 234 214 209 191 162 150 117 78 93 8 82 92 74 61 49 60 57 49 45
167 161 150 158 161 159 154 162 163 155 175 197 204 198 216 185 205 222 199 192 192 173 157 169 199 212 219 174 115 69 53 23 36 23 39 62 68 62 65 84 81 74 64
166 168 169 175 174 172 169 173 162 165 171 210 222 213 213 200 205 204 201 193 172 156 154 159 172 185 213 222 141 156 48 349 336 23 69 77 58 48 62 82 88 84 78
172 171 164 168 179 179 185 176 176 177 177 204 238 234 230 211 201 194 188 183 169 171 172 170 184 187 211 187 200 190 190 207 320 348 70 17 35 33 356 321 143 132 112
176 167 168 175 189 207 197 179 170 172 177 192 227 261 260 236 224 204 191 180 171 177 188 185 196 202 219 212 191 185 177 178 255 256 166 276 66 266 283 232 240 198 188
176 180 186 181 191 210 195 185 180 175 179 195 209 227 259 276 253 208 194 188 188 187 180 183 193 211 209 207 183 182 191 194 223 221 159 237 249 241 260 260 237 219 210
185 194 198 194 187 208 191 181 177 171 180 198 199 204 217 246 229 186 165 152 181 216 210 202 205 213 208 198 190 191 193 193 246 274 166 204 232 240 265 258 244 223 222
187 194 191 187 190 217 204 189 172 165 182 212 217 213 211 216 219 190 159 164 184 272 237 206 210 210 205 194 172 146 150 158 222 249 204 183 211 230 262 257 250 238 228
189 179 179 191 199 215 215 202 178 170 187 221 238 241 226 214 207 185 178 178 196 237 238 117 82 266 220 198 186 183 182 184 197 231 216 180 193 179 258 274 262 252 241
Height
1521 1521 1521 1521 1521 1521 1520 1520 1520 1520 1520 1520 1520 1520 1520 1520 1519 1519 1519 1519 1519 1519 1519 1519 1520 1520 1521 1521 1521 1522 1522 1523 1523 1524 1524 1525 1525 1525 1525 1525 1525 1524 1524
1524 1523 1523 1523 1523 1522 1522 1522 1522 1522 1522 1522 1521 1521 1521 1521 1521 1521 1521 1521 1521 1521 1521 1521 1521 1522 1522 1522 1522 1522 1523 1523 1524 1524 1525 1525 1525 1525 1525 1525 1525 1525 1525
1525 1525 1525 1524 1524 1524 1524 1524 1523 1523 1523 1523 1523 1523 1523 1523 1523 1523 1523 1523 1523 1523 1523 1523 1523 1523 1523 1523 1524 1524 1523 1524 1524 1524 1525 1525 1525 1525 1526 1526 1526 1526 1526
1527 1526 1526 1526 1526 1525 1525 1525 1525 1525 1525 1525 1525 1525 1525 1525 1525 1525 1524 1524 1524 1524 1524 1524 1524 1524 1524 1524 1525 1524 1524 1524 1525 1525 1525 1525 1525 1526 1526 1526 1526 1526 1527
1528 1528 1527 1527 1527 1527 1526 1526 1526 1526 1526 1526 1526 1526 1526 1526 1526 1526 1526 1526 1526 1526 1525 1525 1525 1525 1526 1525 1525 1525 1525 1525 1525 1525 1526 1526 1526 1526 1526 1526 1527 1527 1527
1529 1529 1528 1528 1528 1528 1527 1527 1527 1527 1527 1527 1527 1527 1527 1527 1527 1527 1527 1527 1527 1527 1527 1526 1526 1526 1527 1526 1526 1526 1526 1526 1526 1526 1526 1526 1527 1526 1526 1527 1527 1527 1527
1530 1530 1529 1529 1529 1529 1529 1528 1528 1528 1528 1528 1528 1528 1529 1529 1529 1528 1528 1528 1528 1528 1528 1528 1527 1527 1527 1527 1527 1527 1527 1526 1526 1526 1526 1527 1527 1527 1527 1527 1527 1527 1528
1530 1530 1530 1530 1530 1530 1529 1529 1529 1529 1529 1529 1529 1529 1529 1531 1530 1530 1530 1529 1529 1529 1529 1529 1529 1528 1528 1528 1528 1528 1527 1527 1527 1527 1527 1527 1527 1527 1527 1527 1528 1528 1528
1530 1530 1530 1531 1530 1530 1530 1530 1530 1530 1529 1530 1530 1530 1530 1530 1531 1531 1531 1530 1530 1530 1530 1529 1529 1529 1529 1529 1528 1528 1528 1527 1527 1527 1527 1527 1527 1527 1527 1527 1528 1528 1528
1531 1531 1531 1531 1531 1531 1530 1530 1530 1530 1530 1530 1530 1530 1531 1531 1531 1531 1532 1531 1531 1531 1530 1530 1530 1530 1529 1529 1529 1529 1528 1528 1528 1527 1527 1527 1527 1527 1527 1527 1527 1527 1527
1530 1530 1531 1531 1531 1531 1531 1531 1531 1530 1530 1530 1530 1530 1530 1531 1531 1531 1531 1531 1531 1531 1531 1531 1530 1530 1530 1530 1529 1529 1529 1528 1528 1528 1527 1527 1527 1527 1527 1527 1527 1527 1527
1530 1530 1530 1530 1530 1531 1531 1531 1531 1530 1530 1530 1530 1530 1530 1530 1530 1530 1530 1531 1531 1531 1531 1531 1531 1530 1530 1530 1530 1529 1529 1529 1529 1528 1528 1527 1527 1527 1527 1526 1526 1526 1526
1529 1529 1529 1529 1530 1530 1530 1530 1530 1530 1530 1530 1530 1530 1530 1530 1530 1530 1530 1530 1530 1531 1531 1531 1531 1531 1530 1530 1530 1530 1529 1529 1529 1528 1528 1527 1527 1527 1526 1526 1526 1525 1525
1527 1528 1528 1528 1529 1529 1529 1529 1529 1529 1529 1529 1529 1529 1529 1529 1530 1529 1530 1530 1530 1530 1530 1530 1530 1530 1530 1530 1530 1530 1529 1529 1528 1528 1528 1527 1527 1526 1526 1526 1525 1524 1523
1526 1527 1527 1527 1527 1528 1528 1528 1528 1528 1528 1528 1528 1528 1528 1528 1529 1529 1529 1529 1529 1529 1529 1529 1529 1529 1530 1530 1530 1529 1529 1529 1528 1528 1528 1527 1526 1526 1526 1525 1524 1523 1522
1525 1525 1525 1525 1526 1526 1526 1526 1527 1527 1527 1527 1527 1527 1527 1527 1527 1527 1527 1527 1528 1528 1528 1528 1528 1529 1529 1529 1529 1529 1528 1528 1527 1527 1527 1526 1526 1525 1525 1524 1523 1522 1521
1523 1523 1523 1524 1524 1524 1525 1525 1525 1525 1525 1525 1525 1525 1525 1526 1525 1525 1525 1526 1526 1526 1526 1527 1527 1527 1527 1528 1528 1528 1527 1527 1526 1526 1526 1525 1525 1524 1524 1524 1523 1522 1521
1521 1521 1521 1522 1522 1522 1523 1523 1523 1523 1523 1524 1523 1523 1523 1523 1523 1523 1524 1524 1524 1524 1524 1524 1525 1526 1526 1526 1526 1526 1526 1526 1525 1525 1525 1524 1524 1524 1523 1523 1522 1522 1521
1518 1519 1519 1519 1520 1520 1520 1520 1520 1520 1521 1521 1521 1521 1521 1521 1521 1521 1521 1521 1522 1522 1522 1522 1523 1524 1524 1524 1524 1524 1524 1524 1524 1524 1523 1523 1523 1522 1522 1521 1521 1521 1520
1515 1516 1516 1517 1517 1517 1518 1518 1518 1518 1518 1518 1519 1519 1519 1519 1519 1519 1519 1519 1519 1519 1520 1520 1520 1521 1521 1522 1522 1522 1522 1522 1522 1522 1522 1521 1521 1521 1520 1520 1519 1519 1519
1513 1513 1513 1514 1514 1514 1514 1515 1515 1515 1515 1515 1516 1516 1516 1516 1516 1516 1516 1516 1516 1517 1517 1517 1517 1518 1518 1519 1519 1519 1519 1519 1520 1520 1519 1519 1519 1519 1519 1518 1518 1518 1517
1510 1510 1510 1511 1511 1511 1511 1512 1512 1512 1512 1512 1512 1512 1513 1513 1513 1513 1513 1514 1514 1514 1514 1514 1514 1515 1515 1516 1516 1516 1517 1517 1517 1518 1517 1517 1517 1517 1517 1516 1516 1516 1516
1506 1507 1507 1507 1507 1507 1508 1509 1509 1509 1509 1509 1509 1509 1509 1509 1509 1510 1510 1510 1511 1511 1512 1512 1511 1511 1512 1512 1513 1513 1513 1514 1514 1514 1514 1514 1514 1514 1514 1514 1514 1514 1514
1503 1503 1503 1504 1504 1504 1505 1505 1506 1506 1506 1506 1506 1506 1506 1506 1506 1506 1506 1506 1507 1507 1508 1508 1509 1509 1509 1510 1510 1510 1510 1511 1511 1511 1511 1511 1511 1511 1512 1512 1512 1511 1511
1499 1499 1500 1500 1500 1501 1502 1502 1502 1502 1502 1502 1503 1503 1503 1502 1502 1503 1503 1503 1503 1504 1504 1505 1505 1505 1506 1506 1506 1507 1507 1507 1507 1507 1508 1508 1508 1508 1508 1508 1509 1509 1508
1495 1495 1496 1496 1497 1497 1498 1498 1499 1498 1498 1498 1499 1499 1499 1499 1499 1499 1499 1500 1499 1500 1500 1500 1501 1501 1502 1502 1502 1503 1503 1503 1503 1503 1504 1504 1504 1505 1504 1505 1505 1505 1505